Regional Weather Roundup
Issued by NWS

Home | Current Version | Previous Version | Graphics & Text | Print | Product List | Glossary On
Versions: 1 2 3 4 5 6 7 8 9 10 11 12 13 14 15 16 17 18 19 20 21 22 23 24 25 26 27 28 29 30 31 32 33 34 35 36 37 38 39 40 41 42 43 44 45 46 47 48 49 50
000
ASUS45 KPSR 061000
RWRAZ

ARIZONA HOURLY REGIONAL WEATHER ROUNDUP
NATIONAL WEATHER SERVICE PHOENIX AZ
300 AM MST MON JUL 06 2015

NOTE: FAIR INDICATES FEW OR NO CLOUDS BELOW 12,000 FEET WITH NO
SIGNIFICANT WEATHER AND/OR OBSTRUCTIONS TO VISIBILITY.

AZZ001>003-036-061100-
NORTHWEST ARIZONA

CITY           SKY/WX    TMP DP  RH WIND       PRES   REMARKS
KINGMAN        MOCLDY    71  60  68 SE13      30.09R
$$

AZZ004>008-015-016-018-061100-
NORTH CENTRAL ARIZONA

CITY           SKY/WX    TMP DP  RH WIND       PRES   REMARKS
GRAND CANYON   CLOUDY    58  54  86 CALM      30.30S
WILLIAMS       CLOUDY    59  52  77 S5        30.36F
PRESCOTT       CLOUDY    63  55  75 W9        30.22F
FLAGSTAFF      NOT AVBL
PAYSON         CLOUDY    64  59  82 CALM      30.21S
PAGE           CLOUDY    79  48  33 NW5       30.07S
$$

AZZ009>014-017-061100-
NORTHEAST ARIZONA

CITY           SKY/WX    TMP DP  RH WIND       PRES   REMARKS
WINSLOW        NOT AVBL
SAINT JOHNS    MOCLDY    64  55  72 CALM      30.20R
WINDOW ROCK    MOCLDY    58  55  90 CALM      30.26S
$$

AZZ023-061100-
GREATER PHOENIX AREA

CITY           SKY/WX    TMP DP  RH WIND       PRES   REMARKS
PHOENIX        CLOUDY    85  65  51 CALM      29.93S
LUKE AFB       CLOUDY    86  63  45 N5        29.94R
DEER VALLEY    LGT RAIN  81  70  69 CALM      29.96R
SCOTTSDALE     CLOUDY    83  64  52 CALM      29.97S
$$

AZZ027-028-061100-
SOUTHWEST MARICOPA COUNTY AND PINAL COUNTY

CITY           SKY/WX    TMP DP  RH WIND       PRES   REMARKS
CASA GRANDE    CLOUDY    75  70  83 CALM      29.95F
GILA BEND      FAIR      83  65  54 SE3       29.91S
$$

AZZ503-504-507>509-061100-
SOUTHEAST ARIZONA

CITY           SKY/WX    TMP DP  RH WIND       PRES   REMARKS
TUCSON         PTCLDY    76  64  66 SE6       30.05R
DAVIS-MONTHAN  PTCLDY    74  66  78 CALM      30.04R
NOGALES        MOCLDY    69  62  78 CALM      30.13R
SIERRA VISTA   PTCLDY    67  62  85 SW2       30.18R
SAFFORD        CLOUDY    71  68  90 CALM      30.05R
$$

AZZ020-021-025-026-031-061100-
SOUTHWEST ARIZONA

CITY           SKY/WX    TMP DP  RH WIND       PRES   REMARKS
YUMA           CLEAR     87  63  44 SE9       29.85R
$$

CAZ031-033-041-043-047-048-061-061100-
SOUTHERN CALIFORNIA

CITY           SKY/WX    TMP DP  RH WIND       PRES   REMARKS
DOWNTOWN L.A.  CLOUDY    65  59  81 CALM      30.01F
L.A. AIRPORT   CLOUDY    64  59  83 NW3       30.02F
SAN DIEGO      CLOUDY    67  58  72 NW7       30.02F
BURBANK        CLOUDY    64  58  80 CALM      30.01F
ONTARIO        CLOUDY    65  58  78 SW6       30.01F
RIVERSIDE      CLOUDY    65  59  81 W5        30.02S
PALM SPRINGS   CLEAR     81  58  45 NW12      29.89S
EL CENTRO NAS  CLEAR     80  68  66 E8        29.83S
IMPERIAL       CLEAR     82  67  60 E5        29.81R
BLYTHE         CLEAR     85  54  34 NE9       29.89R
$$

NVZ020-UTZ003-061100-
SOUTHERN NEVADA-UTAH

CITY           SKY/WX    TMP DP  RH WIND       PRES   REMARKS
LAS VEGAS      NOT AVBL
SALT LAKE CITY CLEAR     69  62  78 S3        30.06R
$$

NMZ009-TXZ055-061100-
NEW MEXICO-WEST TEXAS

CITY           SKY/WX    TMP DP  RH WIND       PRES   REMARKS
ALBUQUERQUE    CLOUDY    68  60  75 SW3       30.14F
EL PASO        CLOUDY    76  59  55 SW6       30.03S
$$


........................KEY........................
SKY/WX - SKY CONDITION/WEATHER
TMP    - TEMPERATURE IN FAHRENHEIT
DP     - DEW POINT IN FAHRENHEIT
RH     - RELATIVE HUMIDITY IN PERCENT
WIND   - DIRECTION AND SPEED IN MILES PER HOUR (MPH)
VRB    - VARIABLE WIND DIRECTION
PRES   - MEAN SEA LEVEL PRESSURE IN INCHES OF MERCURY
         F - FALLING PRESSURE   R - RISING PRESSURE
         S - STEADY PRESSURE
VSB    - VISIBILITY IN MILES
HX     - HEAT INDEX IN FAHRENHEIT
WCI    - WIND CHILL INDEX IN FAHRENHEIT
TC     - TEMPERATURE IN CELSIUS WHICH IS ALSO KNOWN AS
         TEMPERATURE IN CENTIGRADE
AFB    - AIR FORCE BASE
         LUKE AFB IS LUKE AIR FORCE BASE
         DAVIS-MONTHAN IS DAVIS-MONTHAN AIR FORCE BASE
NAS    - NAVAL AIR STATION
         EL CENTRO NAS IS EL CENTRO NAVAL AIR STATION
N/A    - NOT AVAILABLE




USA.gov is the U.S. government's official web portal to all federal, state and local government web resources and services.